"2009-02-08 00:00:30",610912,8.59,72.78,5.751,1.163,9.08,102.153,4.794,5.95,40.23,0,109.8,13.47,5.56,34.8
"2009-02-08 00:01:00",610913,7.662,66.72,5.814,1.242,6.739,102.1531,4.794,5.784,40.09,0,109.8,13.47,5.56,28.7
"2009-02-08 00:01:30",610914,8.52,72.05,6.069,1.093,9.17,102.1568,4.804,5.94,40.25,0,109.8,13.47,5.57,34.1
"2009-02-08 00:02:00",610915,8.52,72.19,5.333,0.998,9.08,102.1557,4.801,5.995,40.39,0,109.8,13.47,5.57,34.2
"2009-02-08 00:02:30",610916,8.45,72.07,5.229,1.106,9.08,102.1588,4.809,5.974,40.38,0,109.8,13.47,5.58,34.1
"2009-02-08 00:03:00",610917,8.66,71.49,5.645,1.016,9.12,102.1585,4.808,5.945,40.38,0,109.8,13.47,5.58,33.5
"2009-02-08 00:03:30",610918,7.682,69.3,6.645,1.204,7.616,102.1585,4.808,5.925,40.3,0,109.8,13.48,5.58,31.3
"2009-02-08 00:04:00",610919,8.46,72.65,6.369,1.079,8.87,102.1617,4.816,5.966,40.18,0,109.8,13.48,5.58,34.7
"2009-02-08 00:04:30",610920,8.66,71.66,6.048,1.154,8.62,102.1617,4.816,5.917,40.16,0,109.8,13.48,5.58,33.7
"2009-02-08 00:05:00",610921,8.72,74.5,6.565,1.118,9.22,102.1629,4.819,5.953,40.08,0,109.9,13.48,5.59,36.5
"2009-02-08 00:05:30",610922,8.76,76.7,5.32,1.1,8.9,102.1635,4.821,5.995,40.08,0,109.8,13.48,5.59,38.7
"2009-02-08 00:06:00",610923,8.82,75.22,5.171,1.21,8.7,102.1635,4.821,5.898,40,0,109.8,13.48,5.59,37.2
"2009-02-08 00:06:30",610924,8.86,77.73,5.865,1.086,8.93,102.1643,4.823,5.91,39.99,0,109.8,13.48,5.59,39.7
"2009-02-08 00:07:00",610925,8.41,77.49,6.232,1.214,8.35,102.1646,4.824,5.978,40.11,0,109.8,13.48,5.59,39.5
"2009-02-08 00:07:30",610926,8.89,78.5,5.167,1.093,9.04,102.1655,4.826,5.94,40.12,0,109.8,13.48,5.59,40.5
"2009-02-08 00:08:00",610927,8.54,74.47,6.737,1.205,7.631,102.1669,4.829,5.876,40.1,0,109.8,13.48,5.60,36.5
"2009-02-08 00:08:30",610928,9.35,77.34,6.306,1.082,9.03,102.1658,4.826,5.965,40.14,0,109.8,13.48,5.60,39.3
"2009-02-08 00:09:00",610929,9.23,77.64,6.015,1.103,8.8,102.1678,4.832,5.913,40.17,0,109.8,13.48,5.60,39.6
"2009-02-08 00:09:30",610930,9.1,75.82,6.307,1.297,8.13,102.1658,4.826,5.974,40.26,0,109.8,13.48,5.60,37.8
"2009-02-08 00:10:00",610931,9.42,76.6,5.894,1.18,8.73,102.1681,4.832,5.944,40.18,0,109.8,13.48,5.60,38.6
"2009-02-08 00:10:30",610932,9.63,77.76,6.532,1.114,8.9,102.1669,4.829,5.955,40.24,0,109.8,13.48,5.60,39.8
"2009-02-08 00:11:00",610933,9.62,78.01,5.433,0.962,8.95,102.1695,4.836,5.945,40.22,0,109.8,13.48,5.60,40.0
"2009-02-08 00:11:30",610934,9.57,77.86,5.431,1.214,9.08,102.1653,4.825,5.938,40.26,0,109.8,13.48,5.59,39.9
"2009-02-08 00:12:00",610935,9.35,75.96,7.273,1.091,8.79,102.1636,4.821,5.942,40.29,0,109.8,13.48,5.59,38.0
"2009-02-08 00:12:30",610936,8.54,74.18,7.444,1.213,8.73,102.1627,4.819,5.935,40.12,0,109.8,13.48,5.59,36.2
"2009-02-08 00:13:00",610937,8.72,73.73,5.817,1.146,8.65,102.1619,4.817,5.94,40.27,0,109.8,13.48,5.59,35.7
"2009-02-08 00:13:30",610938,8.88,71.67,7.492,1.024,7.835,102.161,4.814,5.817,40.32,0,109.8,13.48,5.58,33.7
"2009-02-08 00:14:00",610939,8.5,72.3,5.785,1.133,7.804,102.1562,4.802,5.859,40.42,0,109.8,13.48,5.57,34.3
"2009-02-08 00:14:30",610940,8.33,75.59,6.432,1.319,8.54,102.1526,4.793,5.943,40.53,0,109.8,13.48,5.56,37.6
"2009-02-08 00:15:00",610941,8.78,78.04,4.987,1.33,9.01,102.1492,4.784,5.889,40.42,0,109.8,13.48,5.55,40.0
"2009-02-08 00:15:30",610942,9.14,71.7,5.933,0.721,9.51,102.1503,4.787,5.921,40.43,0,109.8,13.48,5.56,33.7
"2009-02-08 00:16:00",610943,8.59,72.28,5.989,1.151,8.43,102.1497,4.786,5.926,40.57,0,109.7,13.48,5.55,34.3
"2009-02-08 00:16:30",610944,8.68,73.05,6.571,1.052,8.33,102.1424,4.767,5.829,40.4,0,109.8,13.48,5.54,35.1
"2009-02-08 00:17:00",610945,8.48,71,5.862,1.223,7.851,102.1379,4.755,5.861,40.43,0,109.8,13.48,5.52,33.0
"2009-02-08 00:17:30",610946,8.91,76.91,6.156,1.388,8.98,102.1373,4.754,5.9,40.47,0,109.8,13.48,5.52,38.9
"2009-02-08 00:18:00",610947,8.89,73.76,6.741,1.132,9.03,102.137,4.753,5.926,40.59,0,109.8,13.48,5.52,35.8
"2009-02-08 00:18:30",610948,8.95,75.78,7.159,1.042,8.86,102.137,4.753,5.898,40.59,0,109.8,13.48,5.52,37.8
"2009-02-08 00:19:00",610949,8.65,70.8,8.05,1.137,8.02,102.137,4.753,5.905,40.61,0,109.8,13.48,5.52,32.8
"2009-02-08 00:19:30",610950,8.53,74.36,5.813,1.254,7.877,102.137,4.753,5.828,40.54,0,109.8,13.48,5.52,36.4
"2009-02-08 00:20:00",610951,9.29,75.86,5.917,1.171,8.88,102.137,4.753,5.888,40.58,0,109.8,13.48,5.52,37.9
"2009-02-08 00:20:30",610952,9.29,77.52,5.091,0.97,9.22,102.137,4.753,5.884,40.57,0,109.8,13.48,5.52,39.5
"2009-02-08 00:21:00",610953,9.36,75.62,5.393,1.402,9.01,102.1367,4.752,5.87,40.71,0,109.8,13.48,5.52,37.6
"2009-02-08 00:21:30",610954,9.66,78.26,5.899,1.066,9.28,102.1348,4.747,5.893,40.62,0,109.8,13.48,5.52,40.3
"2009-02-08 00:22:00",610955,8.92,76.48,6.723,1.275,8.69,102.1305,4.737,5.831,40.6,0,109.8,13.48,5.51,38.5
"2009-02-08 00:22:30",610956,9.24,79.4,6.682,1.146,8.16,102.128,4.73,5.82,40.6,0,109.8,13.48,5.50,41.4
"2009-02-08 00:23:00",610957,8.88,79.7,6.665,1.187,8.79,102.1246,4.721,5.807,40.61,0,109.8,13.49,5.49,41.7
"2009-02-08 00:23:30",610958,9.3,81.6,5.216,1.215,8.83,102.1223,4.716,5.896,40.6,0,109.8,13.49,5.48,43.6
"2009-02-08 00:24:00",610959,9.5,79.71,5.375,1.145,8.7,102.1221,4.715,5.849,40.59,0,109.8,13.49,5.48,41.7
"2009-02-08 00:24:30",610960,9.83,81,4.911,0.826,9.41,102.1198,4.709,5.86,40.61,0,109.8,13.49,5.48,43.0
"2009-02-08 00:25:00",610961,8.63,73.72,6.468,1.259,7.549,102.117,4.702,5.748,40.54,0,109.8,13.49,5.47,35.7
"2009-02-08 00:25:30",610962,9.42,78.25,5.449,1.196,8.19,102.113,4.692,5.806,40.58,0,109.8,13.49,5.46,40.2
"2009-02-08 00:26:00",610963,8.94,76.99,6.211,1.208,8.38,102.1076,4.678,5.826,40.66,0,109.8,13.49,5.45,39.0
"2009-02-08 00:26:30",610964,9.89,80,3.09,0.735,9.5,102.1031,4.666,5.897,40.84,0,109.8,13.49,5.43,42.0
"2009-02-08 00:27:00",610965,9.37,77.14,6.951,1.19,8.79,102.1031,4.666,5.795,40.75,0,109.8,13.49,5.43,39.1
"2009-02-08 00:27:30",610966,9.55,79.91,6.681,0.913,9.26,102.1031,4.666,5.801,40.83,0,109.8,13.49,5.43,41.9
"2009-02-08 00:28:00",610967,8.58,72.39,5.599,1.268,7.361,102.1031,4.666,5.697,40.76,0,109.8,13.49,5.43,34.4
"2009-02-08 00:28:30",610968,8.75,74.49,6.988,1.271,8.47,102.1031,4.666,5.817,40.95,0,109.8,13.49,5.43,36.5
"2009-02-08 00:29:00",610969,9.17,79.27,4.44,0.908,9.15,102.1031,4.666,5.723,40.85,0,109.8,13.49,5.43,41.3
"2009-02-08 00:29:30",610970,8.76,76.18,5.523,1.036,9,102.1028,4.666,5.807,40.99,0,109.8,13.49,5.43,38.2
"2009-02-08 00:30:00",610971,9.39,72.95,6.926,1.236,8.96,102.1025,4.665,5.81,40.95,0,109.7,13.49,5.43,34.9
"2009-02-08 00:30:30",610972,9.41,75.66,6.927,1.098,8.68,102.0975,4.652,5.762,40.87,0,109.8,13.49,5.42,37.7
"2009-02-08 00:31:00",610973,8.63,74.78,5.935,1.127,8.12,102.0952,4.646,5.743,40.73,0,109.8,13.48,5.41,36.8
"2009-02-08 00:31:30",610974,8.45,71.95,7.009,1.276,8.06,102.0929,4.641,5.759,40.83,0,109.8,13.48,5.41,33.9
"2009-02-08 00:32:00",610975,8.35,71.9,6.853,1.423,8.4,102.0912,4.636,5.788,40.95,0,109.8,13.48,5.40,33.9
"2009-02-08 00:32:30",610976,9.08,73.87,7.269,1.048,8.65,102.0887,4.63,5.786,40.96,0,109.8,13.48,5.40,35.9
"2009-02-08 00:33:00",610977,7.89,67.24,6.731,1.253,8.06,102.0833,4.616,5.802,41.16,0,109.8,13.48,5.38,29.2
"2009-02-08 00:33:30",610978,8.85,75.82,6.48,1.109,8.93,102.0816,4.612,5.751,41.05,0,109.8,13.48,5.38,37.8
"2009-02-08 00:34:00",610979,9.12,76.27,9.34,1.262,8.24,102.0816,4.612,5.746,40.96,0,109.8,13.48,5.38,38.3
"2009-02-08 00:34:30",610980,8.81,76.54,6.453,1.148,8.71,102.0794,4.606,5.741,40.98,0,109.8,13.48,5.37,38.5
"2009-02-08 00:35:00",610981,8.77,76.68,7.504,1.124,8.38,102.0743,4.593,5.752,41.05,0,109.8,13.48,5.36,38.7
"2009-02-08 00:35:30",610982,8.64,80.1,4.085,1.029,8.87,102.0695,4.581,5.739,41.11,0,109.8,13.48,5.35,42.1
"2009-02-08 00:36:00",610983,7.269,67.14,7.061,0.973,6.749,102.0692,4.58,5.588,40.97,0,109.9,13.49,5.35,29.1
"2009-02-08 00:36:30",610984,8.27,72.53,7.855,1.369,8.52,102.0692,4.58,5.799,41.41,0,109.8,13.49,5.35,34.5
"2009-02-08 00:37:00",610985,8.86,75.93,5.186,0.962,8.93,102.0692,4.58,5.744,41.35,0,109.8,13.49,5.35,37.9
"2009-02-08 00:37:30",610986,9.37,82,4.615,1.11,9.09,102.0692,4.58,5.716,41.16,0,109.8,13.5,5.35,44.0
"2009-02-08 00:38:00",610987,9.46,76.75,6.467,1.336,8.45,102.0686,4.578,5.72,41.16,0,109.8,13.5,5.35,38.8
"2009-02-08 00:38:30",610988,9.45,74.52,6.13,1.445,8.11,102.0664,4.573,5.696,41.22,0,109.8,13.5,5.34,36.5
"2009-02-08 00:39:00",610989,8.63,74.65,6.029,1.096,7.234,102.0621,4.562,5.598,41.15,0,109.8,13.5,5.33,36.7
"2009-02-08 00:39:30",610990,9.55,79.02,5.845,0.883,9.01,102.0548,4.543,5.704,41.41,0,109.8,13.5,5.31,41.0
"2009-02-08 00:40:00",610991,8.91,79.94,6.265,1.289,8.3,102.0466,4.522,5.708,41.25,0,109.8,13.5,5.29,41.9
"2009-02-08 00:40:30",610992,9.63,75.36,6.056,0.86,9.62,102.0406,4.507,5.751,41.42,0,109.8,13.5,5.27,37.4
"2009-02-08 00:41:00",610993,9.25,77.56,5.679,1.145,8.48,102.0358,4.495,5.698,41.37,0,109.8,13.5,5.26,39.6
"2009-02-08 00:41:30",610994,8.69,77.37,3.913,1.199,8.62,102.0353,4.493,5.704,41.47,0,109.8,13.5,5.26,39.4
"2009-02-08 00:42:00",610995,8.21,75.32,6.504,1.31,7.174,102.0353,4.493,5.519,41.15,0,109.8,13.5,5.26,37.3
"2009-02-08 00:42:30",610996,9.09,78.86,7.419,1.222,8.19,102.0353,4.493,5.624,41.1,0,109.8,13.5,5.26,40.9
"2009-02-08 00:43:00",610997,8.95,78.38,7.39,1.282,8.61,102.0353,4.493,5.67,41.35,0,109.8,13.5,5.26,40.4
"2009-02-08 00:43:30",610998,9.31,85.6,4.027,0.753,9.62,102.0353,4.493,5.707,41.41,0,109.8,13.5,5.26,47.6
"2009-02-08 00:44:00",610999,9.19,83.5,6.793,1.127,8.43,102.0347,4.492,5.675,41.2,0,109.8,13.5,5.26,45.5
"2009-02-08 00:44:30",611000,8.9,82.8,7.083,1.223,7.409,102.0347,4.492,5.574,40.9,0,109.8,13.5,5.26,44.8
"2009-02-08 00:45:00",611001,8.6,83.2,6.826,1.327,7.425,102.0313,4.483,5.613,40.73,0,109.8,13.5,5.25,45.2
"2009-02-08 00:45:30",611002,9.44,83.7,5.734,0.985,9.06,102.0279,4.474,5.625,40.79,0,109.8,13.5,5.24,45.7
"2009-02-08 00:46:00",611003,9.72,87.1,5.232,0.968,9.83,102.0265,4.471,5.674,40.81,0,109.7,13.5,5.24,49.1
"2009-02-08 00:46:30",611004,10.08,87.6,3.588,0.779,9.54,102.024,4.464,5.653,40.97,0,109.8,13.5,5.23,49.6
"2009-02-08 00:47:00",611005,9.81,83.3,5.357,1.097,8.58,102.0186,4.451,5.675,41.27,0,109.8,13.5,5.22,45.3
"2009-02-08 00:47:30",611006,9.1,82.2,6.312,1.099,7.73,102.0155,4.443,5.548,41.4,0,109.8,13.49,5.21,44.2
"2009-02-08 00:48:00",611007,9.1,78.43,6.301,1.137,7.771,102.0042,4.414,5.599,41.27,0,109.8,13.49,5.18,40.4
"2009-02-08 00:48:30",611008,9.23,79.24,7.151,1.178,7.97,102.0014,4.407,5.607,41.11,0,109.8,13.49,5.17,41.2
"2009-02-08 00:49:00",611009,10.12,85.3,3.961,0.511,9.81,102.0014,4.407,5.67,41.13,0,109.8,13.49,5.17,47.3
"2009-02-08 00:49:30",611010,10.15,84.2,4.173,0.676,9.69,102.0014,4.407,5.637,41.19,0,109.8,13.49,5.17,46.2
"2009-02-08 00:50:00",611011,9.68,81.9,4.86,1.08,8.33,102.0022,4.409,5.568,41.22,0,109.8,13.48,5.18,43.9
"2009-02-08 00:50:30",611012,9.36,80.5,6.185,1.143,7.952,102.0019,4.408,5.509,41.31,0,109.8,13.49,5.18,42.5
"2009-02-08 00:51:00",611013,8.46,76.35,5.428,1.18,6.356,102.0031,4.411,5.47,41.33,0,109.8,13.49,5.18,38.3
"2009-02-08 00:51:30",611014,9.61,84,6.249,0.991,8.92,102.0028,4.41,5.598,41.41,0,109.8,13.49,5.18,46.0
"2009-02-08 00:52:00",611015,9.95,87.3,3.626,0.736,9.74,102.0022,4.409,5.616,41.26,0,109.8,13.5,5.18,49.3
"2009-02-08 00:52:30",611016,10.06,87.5,3.846,0.723,9.65,101.9985,4.399,5.638,41.26,0,109.8,13.5,5.17,49.5
"2009-02-08 00:53:00",611017,9.56,85.4,5.853,1.012,8.51,101.996,4.393,5.505,41.22,0,109.8,13.5,5.16,47.4
"2009-02-08 00:53:30",611018,9.23,84.2,6.894,1.239,7.903,101.9904,4.379,5.58,41.11,0,109.8,13.5,5.15,46.2
"2009-02-08 00:54:00",611019,8.58,79.63,4.95,1.032,6.725,101.9875,4.371,5.49,41.02,0,109.8,13.5,5.14,41.6
"2009-02-08 00:54:30",611020,10.1,88.7,4.268,0.67,9.65,101.9864,4.369,5.569,41.07,0,109.8,13.5,5.14,50.7
"2009-02-08 00:55:00",611021,10.01,87.3,5.811,1.096,8.7,101.9856,4.366,5.558,41.09,0,109.8,13.5,5.13,49.3
"2009-02-08 00:55:30",611022,10.24,89.6,4.583,0.683,9.89,101.9845,4.364,5.609,41.14,0,109.8,13.5,5.13,51.6
"2009-02-08 00:56:00",611023,9.19,86.5,6.783,1.281,7.5,101.9794,4.351,5.484,41,0,109.8,13.5,5.12,48.5
"2009-02-08 00:56:30",611024,9.59,87.4,5.39,1.127,8.66,101.9803,4.353,5.54,41.07,0,109.8,13.5,5.12,49.4
"2009-02-08 00:57:00",611025,9.72,89.4,5.85,1.076,8.38,101.9732,4.335,5.428,40.91,0,109.8,13.5,5.10,51.4
"2009-02-08 00:57:30",611026,10.04,90.1,3.013,0.676,9.68,101.9752,4.34,5.566,41.06,0,109.8,13.5,5.11,52.1
"2009-02-08 00:58:00",611027,9.55,88.3,5.88,1.116,8.38,101.9735,4.335,5.516,40.94,0,109.8,13.5,5.10,50.3
"2009-02-08 00:58:30",611028,9.67,90.8,5.541,1.11,9.02,101.9755,4.341,5.597,40.88,0,109.8,13.5,5.11,52.8
"2009-02-08 00:59:00",611029,9.72,89.9,6.043,1.153,8.33,101.9772,4.345,5.461,40.73,0,109.8,13.5,5.11,51.9
"2009-02-08 00:59:30",611030,9.36,87.5,6.752,1.222,7.862,101.9738,4.336,5.543,40.88,0,109.8,13.5,5.10,49.5
"2009-02-08 01:00:00",611031,9.89,90.2,5.153,1.033,8.72,101.9761,4.342,5.552,40.91,0,109.8,13.5,5.11,52.2
"2009-02-08 01:00:30",611032,9.85,89.6,5.343,1.091,8.97,101.9775,4.346,5.515,40.89,0,109.8,13.5,5.11,51.6
"2009-02-08 01:01:00",611033,9.8,85.6,6.16,1.172,8.36,101.9778,4.347,5.462,40.93,0,109.8,13.5,5.11,47.6
"2009-02-08 01:01:30",611034,9.47,85.1,6.336,1.15,8.04,101.9758,4.341,5.508,41.12,0,109.8,13.5,5.11,47.1
"2009-02-08 01:02:00",611035,9.98,84.6,6.378,1.184,8.57,101.9787,4.349,5.485,41.08,0,109.8,13.5,5.12,46.6
"2009-02-08 01:02:30",611036,10.02,83.8,5.396,1.114,8.66,101.9793,4.35,5.525,41.18,0,109.8,13.5,5.12,45.8
"2009-02-08 01:03:00",611037,9.99,87.8,5.598,1.04,9.37,101.9764,4.343,5.547,41.26,0,109.8,13.5,5.11,49.8
"2009-02-08 01:03:30",611038,9.62,83.4,6.078,0.915,8.77,101.9727,4.334,5.496,41.25,0,109.8,13.5,5.10,45.4
"2009-02-08 01:04:00",611039,9.54,80,5.978,1.29,8.47,101.9691,4.324,5.439,41.31,0,109.8,13.5,5.09,42.0
"2009-02-08 01:04:30",611040,9.65,80.5,5.737,1.056,8.37,101.9648,4.313,5.438,41.27,0,109.8,13.49,5.08,42.5
"2009-02-08 01:05:00",611041,9.26,82.5,7.346,1.143,7.926,101.9597,4.3,5.396,41.25,0,109.8,13.5,5.07,44.5
"2009-02-08 01:05:30",611042,8.63,83.7,5.578,1.058,8.95,101.9569,4.293,5.553,41.49,0,109.8,13.5,5.06,45.7
"2009-02-08 01:06:00",611043,10.03,83.1,4.533,0.529,9.75,101.9558,4.29,5.506,41.67,0,109.8,13.5,5.06,45.1
"2009-02-08 01:06:30",611044,9.45,78.61,5.539,0.998,8.6,101.9527,4.282,5.501,41.84,0,109.8,13.5,5.05,40.6
"2009-02-08 01:07:00",611045,8.2,74.58,6.573,1.146,7.292,101.9522,4.281,5.462,41.73,0,109.8,13.5,5.05,36.6
"2009-02-08 01:07:30",611046,9.25,81.3,6.282,1.022,8.43,101.9513,4.279,5.462,41.47,0,109.8,13.5,5.05,43.3
"2009-02-08 01:08:00",611047,8.74,74.77,6.495,1.082,7.638,101.9513,4.279,5.412,41.59,0,109.8,13.5,5.05,36.8
"2009-02-08 01:08:30",611048,9.69,80.7,3.885,0.692,9.61,101.9528,4.283,5.511,41.74,0,109.8,13.5,5.05,42.7
"2009-02-08 01:09:00",611049,9.44,83.8,4.619,1.051,8.92,101.9514,4.279,5.466,41.57,0,109.8,13.5,5.05,45.8
"2009-02-08 01:09:30",611050,9.22,86.6,5.892,1.265,8.73,101.9522,4.281,5.509,41.51,0,109.8,13.5,5.05,48.6
"2009-02-08 01:10:00",611051,8.21,81.3,7.059,1.284,6.55,101.9502,4.276,5.328,41.27,0,109.8,13.5,5.04,43.3
"2009-02-08 01:10:30",611052,8.51,82,5.741,1.186,8.55,101.9505,4.277,5.427,41.56,0,109.8,13.5,5.04,44.0
"2009-02-08 01:11:00",611053,9.16,81.9,6.815,0.906,8.94,101.9511,4.278,5.385,41.47,0,109.8,13.5,5.05,43.9
"2009-02-08 01:11:30",611054,9.06,81.4,6.61,1.106,8.11,101.9502,4.276,5.445,41.62,0,109.8,13.5,5.04,43.4
"2009-02-08 01:12:00",611055,9.29,84.1,5.003,0.87,9.2,101.9525,4.282,5.445,41.62,0,109.8,13.5,5.05,46.1
"2009-02-08 01:12:30",611056,8.32,80.8,6.326,1.22,7.985,101.9514,4.279,5.428,41.62,0,109.8,13.5,5.05,42.8
"2009-02-08 01:13:00",611057,9.1,82.8,6.421,1.063,8.56,101.9514,4.279,5.378,41.53,0,109.8,13.5,5.05,44.8
"2009-02-08 01:13:30",611058,8.3,82.4,6.548,1.26,8.1,101.9525,4.282,5.41,41.55,0,109.8,13.51,5.05,44.4
"2009-02-08 01:14:00",611059,8.53,79.87,6.984,1.111,8.55,101.9517,4.28,5.381,41.56,0,109.8,13.51,5.05,41.9
"2009-02-08 01:14:30",611060,8.99,80.3,5.969,1.222,8.22,101.952,4.281,5.47,41.67,0,109.8,13.51,5.05,42.3
"2009-02-08 01:15:00",611061,9.23,81.5,5.091,0.691,9.15,101.9508,4.278,5.44,41.78,0,109.8,13.51,5.04,43.5
"2009-02-08 01:15:30",611062,8.25,79.73,6.217,1.296,7.262,101.9511,4.278,5.329,41.57,0,109.8,13.51,5.05,41.7
"2009-02-08 01:16:00",611063,8.56,80.9,5.662,1.169,8.18,101.9457,4.265,5.424,41.65,0,109.8,13.51,5.03,42.9
"2009-02-08 01:16:30",611064,8.82,83.9,5.875,1.159,8.58,101.9384,4.246,5.377,41.61,0,109.8,13.51,5.01,45.9
"2009-02-08 01:17:00",611065,9.3,86.6,5.77,0.995,8.72,101.9333,4.233,5.392,41.7,0,109.8,13.51,5.00,48.6
"2009-02-08 01:17:30",611066,8.97,85.8,6.141,1.157,8.24,101.9268,4.216,5.382,41.71,0,109.8,13.51,4.98,47.8
"2009-02-08 01:18:00",611067,8.92,82.9,6.876,1.091,7.676,101.9197,4.198,5.363,41.72,0,109.8,13.51,4.96,44.9
"2009-02-08 01:18:30",611068,9,81.2,6.263,1.151,8.05,101.9192,4.197,5.4,41.75,0,109.8,13.51,4.96,43.2
"2009-02-08 01:19:00",611069,9.33,86.4,5.608,1.133,8.85,101.9192,4.197,5.388,41.8,0,109.8,13.51,4.96,48.4
"2009-02-08 01:19:30",611070,9.46,88.5,3.865,0.992,9.12,101.9192,4.197,5.426,41.9,0,109.8,13.5,4.96,50.5
"2009-02-08 01:20:00",611071,9.28,85,6.239,1.086,8.53,101.918,4.194,5.383,41.85,0,109.8,13.5,4.96,47.0
"2009-02-08 01:20:30",611072,9.57,87,6.065,1.148,8.16,101.9192,4.197,5.365,41.91,0,109.8,13.5,4.96,49.0
"2009-02-08 01:21:00",611073,9.2,85.9,7.029,1.199,7.445,101.9192,4.197,5.244,41.85,0,109.8,13.5,4.96,47.9
"2009-02-08 01:21:30",611074,8.85,81.8,4.651,1.143,7.298,101.9229,4.206,5.307,41.9,0,109.8,13.5,4.97,43.8
"2009-02-08 01:22:00",611075,9.02,82.8,5.807,1.209,8.54,101.9156,4.188,5.363,41.92,0,109.7,13.5,4.95,44.8
"2009-02-08 01:22:30",611076,9.41,87.9,2.679,0.803,9.69,101.913,4.181,5.399,42.02,0,109.8,13.5,4.95,49.9
"2009-02-08 01:23:00",611077,9.41,89.1,5.112,0.883,9.02,101.9077,4.167,5.356,42.06,0,109.8,13.5,4.93,51.1
"2009-02-08 01:23:30",611078,8.83,83.8,6.976,1.163,7.471,101.9057,4.162,5.292,42.02,0,109.8,13.5,4.93,45.8
"2009-02-08 01:24:00",611079,9.47,84,4.709,1.127,8.28,101.9029,4.155,5.249,41.94,0,109.7,13.5,4.92,46.0
"2009-02-08 01:24:30",611080,8.92,79.47,6.723,1.142,7.485,101.9054,4.162,5.271,41.96,0,109.8,13.5,4.93,41.5
"2009-02-08 01:25:00",611081,9.53,84,5.027,0.943,9.02,101.9086,4.17,5.323,42.09,0,109.8,13.51,4.94,46.0
"2009-02-08 01:25:30",611082,9.89,85.7,4.201,0.479,9.5,101.9038,4.157,5.344,42.17,0,109.7,13.51,4.92,47.7
"2009-02-08 01:26:00",611083,9.91,85.5,3.889,0.658,9.41,101.8932,4.131,5.321,42.15,0,109.8,13.51,4.90,47.5
"2009-02-08 01:26:30",611084,8.94,82.6,6.147,1.215,8.01,101.8924,4.129,5.33,42.23,0,109.8,13.51,4.89,44.6
"2009-02-08 01:27:00",611085,9.68,83,5.657,1.073,8.45,101.8907,4.124,5.25,42.11,0,109.8,13.51,4.89,45.0
"2009-02-08 01:27:30",611086,8.98,79.05,6.378,1.24,7.042,101.8922,4.128,5.207,42.07,0,109.7,13.51,4.89,41.1
"2009-02-08 01:28:00",611087,9.43,85,7.412,1.179,8.43,101.8916,4.126,5.299,42.25,0,109.8,13.51,4.89,47.0
"2009-02-08 01:28:30",611088,9.33,86.6,5.001,0.973,9.41,101.891,4.125,5.294,42.32,0,109.8,13.51,4.89,48.6
"2009-02-08 01:29:00",611089,9.6,85.1,4.57,0.956,9.22,101.8907,4.124,5.291,42.34,0,109.8,13.51,4.89,47.1
"2009-02-08 01:29:30",611090,9.67,84.8,4.987,0.978,8.36,101.8925,4.129,5.239,42.35,0,109.7,13.51,4.90,46.8
"2009-02-08 01:30:00",611091,9.53,85,6.099,1.125,8.26,101.8925,4.129,5.266,42.4,0,109.8,13.51,4.90,47.0
"2009-02-08 01:30:30",611092,9.42,84.2,6.667,1.135,7.821,101.8922,4.128,5.206,42.34,0,109.8,13.51,4.89,46.2
"2009-02-08 01:31:00",611093,9.5,84.2,6.696,1.068,8.06,101.8913,4.126,5.258,42.43,0,109.8,13.51,4.89,46.2
"2009-02-08 01:31:30",611094,9.48,88.1,5.503,1.097,8.84,101.8896,4.121,5.271,42.34,0,109.8,13.51,4.89,50.1
"2009-02-08 01:32:00",611095,9.97,89.3,5.059,0.683,9.14,101.8854,4.111,5.286,42.35,0,109.8,13.51,4.88,51.3
"2009-02-08 01:32:30",611096,9.22,87.5,6.244,1.231,7.59,101.8817,4.101,5.244,42.24,0,109.8,13.51,4.87,49.5
"2009-02-08 01:33:00",611097,9.74,89.1,5.725,1.04,8.17,101.88,4.097,5.222,42.19,0,109.8,13.51,4.86,51.1
"2009-02-08 01:33:30",611098,9.69,92.8,6.336,1.152,8.15,101.8755,4.085,5.246,42.01,0,109.8,13.51,4.85,54.8
"2009-02-08 01:34:00",611099,10.31,93,3.967,0.739,9.09,101.8761,4.087,5.257,41.99,0,109.7,13.51,4.85,55.0
"2009-02-08 01:34:30",611100,10.49,93,6.174,0.928,8.81,101.8778,4.091,5.242,41.97,0,109.8,13.51,4.86,55.0
"2009-02-08 01:35:00",611101,10.78,93.8,3.886,0.922,9.23,101.8834,4.105,5.244,41.93,0,109.8,13.51,4.87,55.8
"2009-02-08 01:35:30",611102,9.97,89.1,5.867,1.114,8.28,101.8902,4.123,5.239,41.93,0,109.8,13.51,4.89,51.1
"2009-02-08 01:36:00",611103,10.26,92.2,5.057,1.138,8.48,101.8936,4.132,5.237,41.95,0,109.8,13.51,4.90,54.2
"2009-02-08 01:36:30",611104,10.22,88.7,6.346,1.12,8.54,101.891,4.125,5.3,42.09,0,109.8,13.51,4.89,50.7
"2009-02-08 01:37:00",611105,10.36,87,5.713,1.116,8.72,101.8905,4.124,5.31,42.15,0,109.8,13.51,4.89,49.0
"2009-02-08 01:37:30",611106,10.57,88.4,3.39,0.801,9.15,101.8842,4.108,5.317,42.23,0,109.8,13.5,4.87,50.4
"2009-02-08 01:38:00",611107,9.66,80.8,6.225,1.214,7.401,101.882,4.102,5.218,42.22,0,109.8,13.5,4.87,42.8
"2009-02-08 01:38:30",611108,10.24,87.7,5.898,1.015,8.57,101.8772,4.09,5.221,42.11,0,109.8,13.5,4.86,49.7
"2009-02-08 01:39:00",611109,10.07,84.6,6.533,1.277,7.305,101.8789,4.094,5.235,42.13,0,109.8,13.5,4.86,46.6
"2009-02-08 01:39:30",611110,11,87.8,3.645,0.703,9.5,101.8736,4.08,5.308,42.27,0,109.8,13.5,4.85,49.8
"2009-02-08 01:40:00",611111,11.49,87.9,5.257,0.535,9.48,101.8668,4.063,5.307,42.28,0,109.8,13.5,4.83,49.9
"2009-02-08 01:40:30",611112,11.29,84.5,3.905,0.681,9.24,101.8631,4.054,5.294,42.34,0,109.7,13.5,4.82,46.5
"2009-02-08 01:41:00",611113,10.97,84.4,5.227,0.552,9.02,101.8608,4.048,5.273,42.37,0,109.8,13.51,4.81,46.4
"2009-02-08 01:41:30",611114,11.01,86.3,3.012,0.81,8.78,101.8617,4.05,5.281,42.43,0,109.8,13.51,4.82,48.3
"2009-02-08 01:42:00",611115,10.52,84.4,4.454,0.788,9.09,101.8628,4.053,5.292,42.43,0,109.8,13.51,4.82,46.4
"2009-02-08 01:42:30",611116,11.24,83.4,6.375,0.604,8.91,101.8631,4.054,5.262,42.44,0,109.8,13.51,4.82,45.4
"2009-02-08 01:43:00",611117,10.34,85.7,4.878,0.883,8.76,101.8646,4.057,5.262,42.42,0,109.8,13.51,4.82,47.7
"2009-02-08 01:43:30",611118,11.18,83.2,5.539,0.988,8.02,101.8649,4.058,5.199,42.42,0,109.8,13.51,4.82,45.2
"2009-02-08 01:44:00",611119,9.43,83.6,4.911,1.123,5.993,101.866,4.061,5.113,42.24,0,109.8,13.51,4.83,45.6
"2009-02-08 01:44:30",611120,9.98,81.7,6.167,1.09,6.635,101.8663,4.062,5.03,42.06,0,109.8,13.51,4.83,43.7
"2009-02-08 01:45:00",611121,10.47,84.6,6.056,1.206,8.52,101.8663,4.062,5.184,42.22,0,109.8,13.51,4.83,46.6
"2009-02-08 01:45:30",611122,11.4,91.5,5.297,0.906,9.14,101.8657,4.06,5.239,42.22,0,109.8,13.51,4.83,53.5
"2009-02-08 01:46:00",611123,11.22,84,4.869,1.009,9.3,101.8654,4.06,5.237,42.22,0,109.8,13.51,4.83,46.0
"2009-02-08 01:46:30",611124,11.31,86.3,4.469,0.803,9.46,101.8649,4.058,5.262,42.3,0,109.8,13.51,4.82,48.3
"2009-02-08 01:47:00",611125,10.32,91.6,4.524,0.874,9.59,101.866,4.061,5.258,42.17,0,109.8,13.51,4.83,53.6
"2009-02-08 01:47:30",611126,10.44,85.1,4.689,0.775,9.15,101.8649,4.058,5.266,42.23,0,109.8,13.51,4.82,47.1
"2009-02-08 01:48:00",611127,11.24,87.9,3.781,0.814,9.06,101.8651,4.059,5.267,42.27,0,109.8,13.51,4.83,49.9
"2009-02-08 01:48:30",611128,10.97,91.2,3.97,0.763,9.03,101.866,4.061,5.259,42.26,0,109.8,13.51,4.83,53.2
"2009-02-08 01:49:00",611129,11.22,90.3,6.826,0.511,8.91,101.8654,4.06,5.266,42.22,0,109.8,13.51,4.83,52.3
"2009-02-08 01:49:30",611130,11.36,88.7,4.727,0.834,8.63,101.866,4.061,5.266,42.32,0,109.8,13.51,4.83,50.7
"2009-02-08 01:50:00",611131,10.94,86.8,6.39,1.05,8.8,101.8663,4.062,5.271,42.35,0,109.8,13.51,4.83,48.8
"2009-02-08 01:50:30",611132,11.18,95.7,5.904,0.814,8.85,101.8654,4.06,5.256,42.37,0,109.8,13.51,4.83,57.7
"2009-02-08 01:51:00",611133,11.42,90.5,8.37,0.869,8.74,101.8654,4.06,5.257,42.38,0,109.8,13.51,4.83,52.5
"2009-02-08 01:51:30",611134,11.15,94.6,4.861,0.878,8.53,101.8663,4.062,5.267,42.34,0,109.8,13.51,4.83,56.6
"2009-02-08 01:52:00",611135,10.87,91.8,6.121,1.338,7.973,101.8657,4.06,5.213,42.31,0,109.7,13.51,4.83,53.8
"2009-02-08 01:52:30",611136,9.36,84.8,9.53,1.633,5.967,101.8663,4.062,5.049,42.22,0,109.8,13.5,4.83,46.8